C/2016 N4 ( MASTER )

Japanese version
Home page
Updated on October 9, 2017

---------------------------------------------------------------------

* Profile

Discovery Date July 15, 2016
Magnitude 16.8 mag
Discoverer Mobile Astronomical System of the Telescope-Robots (MASTER)

* Pictures

* Orbital Elements

Epoch 2017 Sept. 4.0 TT = JDT 2458000.5
T 2017 Sept. 16.59731 TT                                MPCW
q   3.1991189            (2000.0)            P               Q
z  +0.0001936      Peri.   55.95517     +0.58263340     -0.80665812
 +/-0.0000010      Node   354.03141     -0.14120864     +0.01973008
e   0.9993805      Incl.   72.55728     +0.80037394     +0.59068892
From 708 observations 2016 July 15-2017 July 4, mean residual 0".5.

* Finding Charts

* Magnitudes Graph

        m1 = 7.0 + 5 log d + 10.0 log r(t + 200)

---------------------------------------------------------------------

The orbital elements are published on M.P.E.C. 2017-N58.
The charts are made with StellaNavigator Ver.10 (AstroArts).
The magnitudes graphs are made with Comet for Windows.

---------------------------------------------------------------------

Copyright(C) Seiichi Yoshida (comet@aerith.net). All rights reserved.